Weather History for PHMK - January, 2013

Change the Weather History Date:

Tuesday, January 1, 2013

  Actual Average Record
Temperature  
Mean Temperature 70 °F -  
Max Temperature 73 °F 77 °F 85 °F (1977)
Min Temperature 68 °F 64 °F 54 °F (1973)
Cooling Degree Days 6    
Growing Degree Days 20 (Base 50)    
Moisture  
Dew Point 66 °F    
Average Humidity 86    
Maximum Humidity 93    
Minimum Humidity 78    
Precipitation  
Precipitation 2.06 in - - ()
Sea Level Pressure  
Sea Level Pressure 30.08 in    
Wind  
Wind Speed 12 mph (North)    
Max Wind Speed 20 mph    
Max Gust Speed 32 mph    
Visibility 7 miles    
Events Rain    
Averages and records for this station are not official NWS values.
T = Trace of Precipitation, MM = Missing Value Source: NWS Daily Summary

Daily Weather History Graph

Daily Weather History Graph

Search for Another Location

Airport or City:

Trip Planner

Search our weather history database for the weather conditions in past years. The results will help you decide how hot, cold, wet, or windy it might be!

Date:

Astronomy

Jan. 01, 2013 Rise Set
Actual Time 7:05 AM HST 5:58 PM HST
Civil Twilight 6:41 AM HST 6:22 PM HST
Nautical Twilight 6:14 AM HST 6:50 PM HST
Astronomical Twilight 5:46 AM HST 7:17 PM HST
Moon 10:04 PM HST (1/1) 9:56 AM HST (1/1)
Length of Visible Light 11h 41m
Length of Day
10h 52m
Waning Gibbous, 82% of the Moon is Illuminated
Jan 1
Waning Gibbous
Jan 4
Last Quarter
Jan 11
New
Jan 18
First Quarter
Jan 26
Full

Hourly Weather History & Observations

Time (HST) Temp. Dew Point Humidity Pressure Visibility Wind Dir Wind Speed Gust Speed Precip Events Conditions
12:15 AM 73.4 °F 68.0 °F 83% 30.10 in 8.0 mi North 9.2 mph - N/A   Overcast
12:22 AM 73.4 °F 68.0 °F 83% 30.09 in 9.0 mi North 11.5 mph - N/A   Overcast
12:31 AM 73.4 °F 68.0 °F 83% 30.09 in 10.0 mi North 11.5 mph - N/A   Overcast
12:54 AM 73.0 °F 68.0 °F 84% 30.10 in 10.0 mi NNW 9.2 mph 17.3 mph N/A   Mostly Cloudy
1:09 AM 73.4 °F 68.0 °F 83% 30.09 in 10.0 mi NNW 11.5 mph - N/A   Mostly Cloudy
1:34 AM 73.4 °F 68.0 °F 83% 30.08 in 10.0 mi North 12.7 mph - N/A   Mostly Cloudy
1:43 AM 73.4 °F 66.2 °F 78% 30.08 in 10.0 mi North 12.7 mph - N/A   Mostly Cloudy
1:54 AM 73.0 °F 68.0 °F 84% 30.08 in 10.0 mi North 13.8 mph - N/A   Overcast
2:03 AM 71.6 °F 68.0 °F 88% 30.08 in 10.0 mi North 8.1 mph - 0.00 in Rain Light Rain
2:11 AM 71.6 °F 68.0 °F 88% 30.07 in 10.0 mi NNE 6.9 mph - 0.00 in   Overcast
2:35 AM 71.6 °F 68.0 °F 88% 30.07 in 10.0 mi North 8.1 mph - 0.00 in   Overcast
2:42 AM 71.6 °F 68.0 °F 88% 30.07 in 10.0 mi North 11.5 mph - 0.00 in   Overcast
2:47 AM 71.6 °F 68.0 °F 88% 30.07 in 10.0 mi North 12.7 mph - 0.00 in   Overcast
2:54 AM 73.0 °F 68.0 °F 84% 30.07 in 10.0 mi North 12.7 mph - 0.00 in   Overcast
3:01 AM 71.6 °F 66.2 °F 83% 30.06 in 10.0 mi North 11.5 mph - N/A   Overcast
3:04 AM 71.6 °F 66.2 °F 83% 30.06 in 10.0 mi North 13.8 mph - N/A   Overcast
3:31 AM 71.6 °F 66.2 °F 83% 30.07 in 10.0 mi North 10.4 mph - N/A   Overcast
3:54 AM 71.1 °F 66.9 °F 87% 30.08 in 9.0 mi North 11.5 mph - N/A   Overcast
4:11 AM 71.6 °F 68.0 °F 88% 30.07 in 8.0 mi North 8.1 mph 16.1 mph 0.01 in Rain Light Rain
4:36 AM 71.6 °F 68.0 °F 88% 30.08 in 10.0 mi North 11.5 mph - 0.01 in   Overcast
4:45 AM 71.6 °F 68.0 °F 88% 30.08 in 10.0 mi North 9.2 mph - 0.01 in   Overcast
4:54 AM 72.0 °F 68.0 °F 87% 30.10 in 10.0 mi North 8.1 mph - 0.01 in   Overcast
5:52 AM 71.6 °F 68.0 °F 88% 30.09 in 10.0 mi NNW 12.7 mph - 0.00 in   Mostly Cloudy
5:54 AM 72.0 °F 68.0 °F 87% 30.10 in 10.0 mi NNW 12.7 mph - 0.00 in   Mostly Cloudy
6:54 AM 72.0 °F 66.9 °F 84% 30.11 in 10.0 mi NNE 11.5 mph 19.6 mph N/A   Mostly Cloudy
7:01 AM 71.6 °F 66.2 °F 83% 30.10 in 10.0 mi NNE 10.4 mph 17.3 mph N/A   Mostly Cloudy
7:54 AM 71.1 °F 66.9 °F 87% 30.12 in 6.0 mi NNE 9.2 mph - 0.00 in Rain Light Rain
8:54 AM 71.1 °F 66.9 °F 87% 30.15 in 9.0 mi NNE 10.4 mph - 0.01 in   Mostly Cloudy
9:07 AM 71.6 °F 68.0 °F 88% 30.14 in 4.0 mi NNE 4.6 mph 19.6 mph 0.00 in Rain Light Rain
9:54 AM 73.0 °F 66.9 °F 81% 30.14 in 10.0 mi NNE 12.7 mph 20.7 mph 0.00 in   Overcast
10:18 AM 71.6 °F 68.0 °F 88% 30.13 in 8.0 mi North 10.4 mph 16.1 mph N/A   Overcast
10:25 AM 71.6 °F 66.2 °F 83% 30.13 in 6.0 mi North 11.5 mph 21.9 mph 0.02 in Rain Rain
10:54 AM 73.0 °F 68.0 °F 84% 30.13 in 10.0 mi North 16.1 mph 23.0 mph 0.02 in   Mostly Cloudy
11:01 AM 71.6 °F 68.0 °F 88% 30.12 in 10.0 mi North 12.7 mph 23.0 mph N/A   Mostly Cloudy
11:54 AM 72.0 °F 66.9 °F 84% 30.10 in 10.0 mi North 12.7 mph 24.2 mph 0.00 in   Mostly Cloudy
12:01 PM 71.6 °F 66.2 °F 83% 30.09 in 10.0 mi NNE 15.0 mph 26.5 mph N/A   Overcast
12:34 PM 71.6 °F 66.2 °F 83% 30.07 in 10.0 mi North 17.3 mph 25.3 mph 0.00 in   Overcast
12:54 PM 71.1 °F 66.9 °F 87% 30.07 in 7.0 mi North 16.1 mph 28.8 mph 0.01 in Rain Light Rain
1:01 PM 71.6 °F 66.2 °F 83% 30.05 in 10.0 mi North 17.3 mph 28.8 mph 0.00 in   Overcast
1:54 PM 71.1 °F 66.0 °F 84% 30.05 in 10.0 mi NNE 13.8 mph 25.3 mph 0.00 in Rain Light Rain
2:11 PM 71.6 °F 66.2 °F 83% 30.03 in 10.0 mi NNE 13.8 mph 25.3 mph 0.00 in Rain Light Rain
2:54 PM 72.0 °F 66.0 °F 81% 30.04 in 3.0 mi NNE 11.5 mph 25.3 mph 0.00 in Rain Rain
3:28 PM 69.8 °F 66.2 °F 88% 30.03 in 2.0 mi NNE 11.5 mph 26.5 mph 0.13 in Rain Heavy Rain
3:45 PM 69.8 °F 66.2 °F 88% 30.03 in 2.0 mi NNE 11.5 mph 26.5 mph 0.26 in Rain Heavy Rain
3:54 PM 69.1 °F 66.9 °F 93% 30.04 in 1.0 mi North 12.7 mph 23.0 mph 0.32 in Rain Heavy Rain
4:01 PM 69.8 °F 66.2 °F 88% 30.03 in 0.8 mi NNE 12.7 mph 23.0 mph 0.09 in Rain Heavy Rain
4:10 PM 69.8 °F 66.2 °F 88% 30.03 in 1.0 mi NNE 13.8 mph 24.2 mph 0.25 in Rain Heavy Rain
4:54 PM 68.0 °F 66.0 °F 93% 30.06 in 1.0 mi NNE 13.8 mph 24.2 mph 0.45 in Rain Heavy Rain
5:54 PM 68.0 °F 64.9 °F 90% 30.08 in 1.2 mi NNE 15.0 mph 29.9 mph 0.33 in Rain Rain
5:57 PM 69.8 °F 66.2 °F 88% 30.07 in 1.8 mi NNE 15.0 mph 29.9 mph 0.01 in Rain Rain
6:06 PM 68.0 °F 64.4 °F 88% 30.07 in 1.2 mi NNE 16.1 mph 31.1 mph 0.03 in Rain Heavy Rain
6:54 PM 68.0 °F 64.9 °F 90% 30.09 in 1.2 mi NNE 13.8 mph 24.2 mph 0.24 in Rain Rain
7:01 PM 68.0 °F 64.4 °F 88% 30.08 in 1.8 mi NNE 19.6 mph 32.2 mph 0.05 in Rain Heavy Rain
7:15 PM 68.0 °F 64.4 °F 88% 30.08 in 2.0 mi NNE 15.0 mph 26.5 mph 0.13 in Rain Heavy Rain
7:35 PM 68.0 °F 64.4 °F 88% 30.08 in 2.0 mi North 17.3 mph 29.9 mph 0.23 in Rain Rain
7:54 PM 68.0 °F 64.9 °F 90% 30.09 in 2.0 mi NNE 17.3 mph 28.8 mph 0.33 in Rain Rain
8:24 PM 68.0 °F 64.4 °F 88% 30.07 in 3.0 mi NNE 18.4 mph 28.8 mph 0.08 in Rain Light Rain
8:54 PM 68.0 °F 64.9 °F 90% 30.10 in 4.0 mi NNE 17.3 mph 26.5 mph 0.12 in Rain Light Rain
9:03 PM 68.0 °F 64.4 °F 88% 30.09 in 4.0 mi NNE 13.8 mph 27.6 mph 0.01 in Rain Light Rain
9:12 PM 68.0 °F 64.4 °F 88% 30.08 in 4.0 mi NNE 17.3 mph 28.8 mph 0.02 in Rain Light Rain
9:22 PM 68.0 °F 64.4 °F 88% 30.08 in 3.0 mi NNE 18.4 mph 29.9 mph 0.03 in Rain Rain
9:54 PM 68.0 °F 64.9 °F 90% 30.12 in 3.0 mi NNE 10.4 mph 27.6 mph 0.08 in Rain Light Rain
10:16 PM 68.0 °F 64.4 °F 88% 30.10 in 2.5 mi NNE 12.7 mph 27.6 mph 0.04 in Rain Rain
10:19 PM 68.0 °F 64.4 °F 88% 30.09 in 3.0 mi NNE 13.8 mph 24.2 mph 0.05 in Rain Rain
10:35 PM 68.0 °F 64.4 °F 88% 30.09 in 3.0 mi NNE 17.3 mph 29.9 mph 0.08 in Rain Rain
10:43 PM 68.0 °F 64.4 °F 88% 30.09 in 4.0 mi NNE 18.4 mph 26.5 mph 0.09 in Rain Light Rain
10:54 PM 69.1 °F 64.9 °F 87% 30.09 in 4.0 mi NNE 16.1 mph 29.9 mph 0.09 in Rain Light Rain
11:03 PM 68.0 °F 64.4 °F 88% 30.08 in 4.0 mi NNE 15.0 mph 29.9 mph 0.02 in Rain Light Rain
11:54 PM 69.1 °F 64.9 °F 87% 30.07 in 4.0 mi NNE 19.6 mph 32.2 mph 0.05 in Rain Light Rain